Wind_Speed
9 11 13 15 13 15 18 20 26 26 27 26 25 26 26 23 25 24 23 21 18 14 11 15 26 37 31 28 29 27 26 29 31 25 20 20 16 15 12 12 10 14 14 10
17 16 20 15 15 14 16 21 26 24 26 26 25 26 24 23 25 26 23 25 22 18 14 13 19 32 33 28 26 26 27 24 31 25 25 22 17 18 9 9 8 12 12 10
23 22 10 9 19 17 17 19 21 23 26 27 21 24 21 22 24 24 21 25 20 17 19 15 13 24 30 29 29 27 27 23 26 21 20 22 21 18 11 14 12 13 13 11
20 20 11 8 13 20 19 19 22 20 20 16 19 15 20 22 22 23 21 26 22 19 19 18 17 15 27 29 31 30 27 24 24 21 17 17 16 15 13 15 13 10 9 9
31 26 11 23 14 18 22 8 8 14 18 15 24 12 15 23 20 24 20 21 22 20 20 21 21 25 30 30 31 30 28 25 26 24 26 22 17 13 18 15 14 12 10 10
31 26 21 15 17 6 12 5 12 12 6 7 21 18 18 20 24 23 20 17 19 19 19 22 24 33 29 29 29 29 29 27 27 28 21 22 19 22 21 14 14 11 9 9
24 16 11 11 17 12 15 8 2 5 7 15 18 16 21 24 27 29 24 22 20 22 23 21 21 23 28 30 31 30 30 28 27 28 20 25 17 20 17 15 13 13 15 14
11 16 12 7 14 14 6 10 3 6 12 12 22 18 23 23 24 30 29 26 25 21 23 23 22 19 26 29 31 31 29 27 27 26 21 24 21 22 17 16 17 15 14 10
7 8 21 21 11 13 3 8 7 5 19 6 16 24 23 23 20 29 29 25 25 21 24 23 24 20 30 31 33 30 27 27 27 24 21 20 22 20 18 15 21 19 16 16
5 9 21 21 12 9 9 7 2 4 5 4 8 7 12 17 18 24 28 27 24 21 23 21 22 22 33 37 39 35 30 28 27 25 20 20 19 16 22 24 22 22 21 22
6 2 16 27 9 7 7 3 5 2 4 4 6 8 9 8 16 22 25 26 22 22 24 23 16 27 29 34 38 36 34 29 24 24 26 27 29 29 25 24 24 25 28 26
5 5 12 26 21 9 4 11 9 2 5 8 7 2 14 19 12 23 25 25 21 24 21 21 19 12 37 33 36 30 35 36 29 30 32 31 28 25 26 28 29 31 30 25
7 4 9 18 9 5 3 11 16 7 3 9 5 5 15 17 18 15 23 23 22 23 18 24 19 16 17 31 33 29 29 30 31 32 33 30 28 28 32 32 32 30 27 23
6 4 7 4 19 20 17 3 16 7 0 3 3 10 10 16 11 4 16 18 18 17 15 18 18 21 21 26 30 28 27 26 30 31 33 32 31 33 34 34 31 27 22 17
1 8 15 19 25 29 21 8 12 0 5 8 13 11 8 12 18 18 27 25 20 19 29 26 25 17 13 28 19 24 26 30 33 34 33 30 32 33 33 31 27 22 20 19
11 5 16 19 14 12 4 4 4 8 4 14 10 9 14 13 15 20 23 19 22 23 22 26 19 26 13 23 25 24 26 31 36 33 32 32 35 34 30 28 25 24 22 19
8 7 12 7 22 24 3 21 16 16 26 12 7 11 12 14 13 17 15 18 15 17 17 17 20 17 24 24 26 27 29 30 33 34 30 32 33 32 30 27 25 24 21 19
7 8 6 7 15 2 12 23 26 25 22 18 11 10 9 5 8 16 15 12 12 12 11 13 13 22 26 28 30 31 30 30 32 32 31 30 30 30 28 26 24 22 18 16
5 4 4 3 6 7 9 18 21 18 20 20 14 6 6 8 4 11 14 13 11 10 10 12 19 26 28 29 29 33 31 30 30 29 29 27 25 24 21 19 18 16 16 18
7 1 2 6 4 3 9 24 25 17 3 20 17 15 17 1 6 3 9 11 12 13 15 21 26 30 28 28 31 31 28 27 26 25 26 24 22 21 20 19 19 18 16 15
5 2 2 4 3 2 17 22 19 3 8 18 16 15 14 5 5 7 8 11 14 14 15 23 27 26 27 27 28 27 25 25 26 27 26 24 21 20 19 18 16 16 16 16
2 5 3 2 2 2 15 10 7 6 9 13 13 7 14 13 11 9 9 10 10 11 17 21 25 25 26 27 27 26 25 25 25 25 25 23 20 18 17 15 15 15 14 14
2 1 3 2 1 2 6 1 4 7 13 12 11 8 14 12 12 10 9 9 9 13 16 20 24 26 23 24 24 26 22 23 24 24 24 22 21 19 17 15 13 11 8 10
5 3 3 3 4 5 5 7 8 11 13 15 6 3 14 13 12 12 9 9 8 12 15 19 23 24 24 25 25 25 24 23 25 27 25 21 20 21 19 17 17 17 16 13
9 5 5 1 3 2 6 3 9 10 11 12 11 11 15 14 13 12 10 9 13 15 14 18 20 22 24 26 25 24 23 26 26 24 23 25 24 22 22 21 19 19 21 15
5 3 3 2 8 4 8 7 9 8 8 8 7 11 13 15 13 14 11 15 14 16 16 18 19 21 25 24 23 21 20 22 22 21 19 22 23 20 19 21 23 22 20 17
Wind_Direction
247 252 271 290 286 291 292 270 279 284 287 257 238 234 237 230 248 226 216 241 234 198 214 211 175 144 147 155 163 169 168 173 178 183 179 183 199 185 223 209 197 184 184 208
263 244 259 277 272 269 274 274 278 267 277 276 247 242 228 228 231 244 201 225 234 177 206 210 154 135 159 152 161 166 177 185 182 180 185 183 186 175 193 178 183 170 175 184
288 291 349 261 294 258 252 264 258 264 266 273 267 243 230 225 227 233 215 214 223 181 190 179 162 149 153 161 170 170 176 181 174 180 187 170 167 175 148 150 155 153 174 169
292 288 278 253 259 273 275 255 256 259 266 265 274 252 222 227 222 222 243 196 214 202 175 168 166 151 162 163 170 173 177 178 178 181 184 186 166 156 164 147 152 146 150 162
281 288 263 299 272 251 277 297 323 292 257 281 270 256 238 215 204 216 229 193 202 189 173 171 170 159 169 167 170 171 174 172 178 182 181 176 171 186 164 132 137 145 150 166
283 290 282 262 268 223 102 339 275 294 258 262 246 242 237 207 192 209 212 220 199 205 190 176 170 162 169 169 170 169 170 173 177 181 179 178 184 145 135 133 151 158 162 146
302 287 271 221 250 244 238 176 253 236 209 235 214 223 239 219 192 196 205 213 230 202 190 175 169 169 165 170 169 168 168 167 171 179 178 176 179 150 147 149 143 142 149 153
334 323 360 238 218 249 260 165 182 274 213 215 221 208 222 219 215 194 198 201 217 210 184 174 173 168 163 168 163 160 163 163 169 175 172 170 159 143 151 158 161 158 162 152
313 290 317 305 241 241 40 226 192 240 258 235 205 206 209 224 226 184 188 206 210 209 181 172 165 164 167 170 149 148 158 162 169 175 162 155 149 153 145 159 153 155 159 150
285 293 299 283 236 207 169 142 249 242 312 276 165 204 203 190 214 204 181 194 200 205 171 170 180 174 168 153 141 145 152 156 157 162 159 153 157 140 144 145 140 144 142 141
251 311 293 304 230 260 178 81 48 7 254 271 193 176 2 330 162 167 182 180 195 193 168 168 188 162 147 143 145 145 151 155 155 142 138 133 124 133 137 139 142 140 138 135
341 282 295 298 277 292 174 165 189 42 321 315 284 223 343 312 213 170 172 176 188 187 167 161 185 143 138 139 138 123 122 123 119 123 120 121 128 132 130 132 134 138 133 128
352 329 326 331 279 168 260 111 96 90 332 259 278 308 340 322 305 168 166 174 165 184 169 168 142 161 119 106 99 101 105 116 122 125 127 124 125 129 129 133 133 131 132 130
172 263 257 262 288 300 299 6 119 144 9 291 67 335 30 306 132 81 143 151 163 198 164 89 103 81 72 85 98 102 105 112 115 119 122 121 124 127 126 130 134 129 119 113
244 293 314 297 272 264 252 350 145 185 316 51 14 340 199 33 33 37 26 352 166 188 94 110 110 111 109 93 86 104 110 111 114 111 110 111 117 123 123 120 115 117 112 105
315 294 316 303 316 331 8 2 74 29 3 69 71 35 47 18 35 37 37 14 52 60 93 103 111 111 103 109 120 111 104 102 113 109 110 115 115 114 116 121 114 113 106 103
307 320 329 304 342 319 331 354 329 63 62 101 52 11 23 5 27 49 44 14 49 72 47 72 100 117 117 115 116 105 106 111 110 110 110 114 113 111 115 121 120 111 109 107
323 322 307 309 343 6 327 320 347 65 68 47 69 14 59 13 18 35 43 34 36 52 86 84 95 102 110 107 104 107 110 110 110 109 110 112 115 118 119 112 110 112 111 108
3 310 314 316 326 316 334 341 334 347 58 34 19 38 117 145 127 54 31 35 30 46 87 91 104 103 105 108 109 109 109 110 112 112 114 115 116 118 116 118 120 115 112 103
336 360 291 317 310 267 355 331 328 300 105 10 356 347 335 143 302 34 40 47 35 39 78 94 95 97 97 103 108 107 109 110 112 117 117 120 120 120 121 121 120 120 112 106
333 21 272 356 295 47 346 337 315 286 353 328 342 330 32 69 53 86 72 68 62 49 74 95 102 103 108 110 107 107 108 104 109 105 102 105 109 112 113 117 114 111 110 105
303 325 1 300 337 359 356 4 35 301 303 323 330 330 87 102 103 89 76 72 70 65 73 100 99 99 103 108 109 101 96 103 107 110 111 111 110 111 110 111 113 114 117 113
261 12 328 339 357 237 44 60 252 319 321 330 324 338 109 116 108 104 93 80 76 73 74 88 104 106 111 114 114 111 112 114 115 113 112 113 110 109 111 116 125 126 118 111
320 114 255 311 212 325 56 352 16 354 343 327 277 254 116 123 117 102 101 103 89 81 84 88 92 92 96 103 107 109 112 113 110 108 103 103 102 98 90 73 79 78 59 66
301 283 284 62 10 294 215 318 10 4 355 351 333 111 121 128 127 120 106 96 108 108 102 104 107 109 110 112 113 116 115 115 108 104 95 102 100 99 90 84 82 80 69 80
323 345 313 281 342 300 327 358 22 15 354 347 343 102 121 129 127 127 113 110 102 105 111 114 118 120 115 116 118 121 124 124 121 118 116 119 113 107 103 98 89 84 85 84
Height
727 737 729 719 713 715 718 725 722 707 694 686 681 679 676 673 669 664 667 663 657 656 655 660 682 664 683 690 708 720 728 735 741 747 750 755 760 764 768 770 771 775 780 781
721 730 712 706 710 715 719 722 714 703 697 692 675 671 666 663 663 659 657 661 657 655 655 651 661 649 688 691 705 719 727 735 739 743 747 751 756 760 765 768 771 774 779 780
719 706 709 722 725 714 716 721 722 713 697 680 673 673 666 658 654 649 645 650 648 651 658 656 655 672 681 689 706 717 727 733 737 741 744 745 750 759 762 764 770 775 778 780
712 697 704 712 723 712 711 701 705 707 702 704 677 687 663 655 655 649 643 644 646 650 652 659 665 673 683 695 708 716 724 731 736 739 745 749 750 757 762 764 767 775 779 780
708 704 706 727 706 706 711 711 714 713 706 719 698 689 657 647 657 650 640 636 639 642 648 656 665 675 689 696 705 713 721 728 734 739 745 749 752 756 761 766 768 774 778 781
709 694 696 708 694 696 715 732 719 718 712 726 696 678 657 642 644 647 639 637 637 639 643 651 660 671 684 694 702 710 718 725 732 738 744 747 751 756 758 765 767 775 780 784
704 683 681 695 696 690 698 731 722 721 716 701 664 676 654 624 621 630 636 637 635 634 640 646 653 663 676 687 697 706 714 722 729 735 741 745 752 754 759 765 772 776 781 785
724 701 686 676 684 688 694 706 732 717 689 671 653 658 637 605 604 611 621 626 628 628 631 639 647 660 672 683 692 702 710 719 727 733 739 743 746 752 757 764 771 777 781 785
744 709 680 678 664 669 725 715 711 731 696 685 632 630 609 602 596 604 617 625 626 624 625 632 640 655 667 678 687 696 709 717 724 732 738 743 749 754 757 766 771 775 781 787
749 732 687 671 658 663 686 692 702 707 698 675 637 641 621 610 604 595 610 619 620 619 621 629 635 646 655 662 670 688 704 714 722 731 739 743 749 752 757 763 769 776 781 786
738 746 704 672 658 660 681 697 714 723 717 685 645 635 611 617 591 598 605 611 613 614 615 622 627 650 656 665 675 682 695 711 722 730 735 739 747 752 759 764 773 777 782 788
738 736 719 690 655 636 648 697 707 714 699 686 671 647 625 623 588 589 596 605 606 611 614 619 618 642 654 660 669 683 691 707 722 729 735 742 749 756 763 770 775 781 785 791
748 737 728 695 647 642 653 661 684 705 709 690 681 664 645 619 609 587 593 598 604 609 611 618 637 641 639 663 680 696 705 713 721 729 736 746 754 760 767 772 778 785 789 793
747 742 735 736 711 687 672 649 668 682 705 694 697 682 660 624 604 599 599 602 607 607 613 632 652 648 680 682 695 707 717 724 729 736 741 750 758 764 770 776 782 788 793 797
736 733 725 713 689 670 654 647 660 665 660 676 699 701 670 642 627 626 627 635 606 613 648 653 662 678 691 689 713 718 726 727 729 739 748 756 763 767 774 781 787 791 795 798
728 731 720 695 655 647 647 645 643 648 649 683 695 678 653 652 648 657 663 663 655 654 669 676 691 689 710 714 723 730 730 726 733 742 753 761 767 772 778 785 790 793 797 801
730 729 724 708 685 679 663 683 659 654 677 686 694 690 673 663 672 694 697 674 670 674 673 680 695 708 713 721 727 727 731 738 741 747 758 765 769 774 782 788 790 795 799 802
732 731 721 722 701 699 709 693 670 673 697 700 702 693 700 700 692 695 707 707 697 681 685 685 701 709 719 724 727 730 741 745 749 756 762 768 773 780 786 790 795 800 803 806
730 728 732 730 733 726 713 699 695 692 707 705 702 693 694 700 694 708 713 714 714 708 703 702 712 718 724 730 736 741 748 754 758 762 767 773 780 786 791 796 800 804 806 807
731 734 740 730 731 731 728 708 695 690 705 712 710 702 695 682 690 713 726 725 722 718 717 716 718 721 727 734 740 744 751 755 761 765 771 778 785 791 795 798 799 803 807 811
745 735 740 738 734 725 726 706 681 699 729 719 712 707 707 710 715 726 731 732 733 729 727 728 731 735 739 743 746 753 759 763 767 771 776 784 791 794 797 801 804 806 809 810
756 744 734 735 742 744 733 719 728 738 729 723 714 708 712 724 728 731 731 734 738 740 739 739 739 744 748 754 759 763 767 771 774 779 785 790 794 798 802 805 808 809 811 810
745 740 743 746 742 741 736 738 735 732 727 720 717 714 715 728 733 735 736 737 741 744 746 747 748 753 760 763 766 767 773 776 780 785 790 794 797 801 805 808 810 811 812 811
727 728 736 735 738 730 733 731 729 728 725 721 714 714 719 731 737 741 742 744 745 747 748 750 752 755 760 765 769 772 777 782 786 788 793 797 800 802 805 809 811 811 813 815
728 728 729 730 734 729 731 727 727 728 727 723 717 715 723 734 741 744 748 749 751 754 756 757 759 762 766 770 775 781 785 789 791 795 799 802 806 809 812 815 816 818 819 822
723 726 730 735 729 730 726 724 726 729 730 728 725 723 730 736 743 747 749 754 756 758 762 764 767 770 771 776 780 785 789 792 796 800 805 808 812 815 819 821 823 824 826 828